Weather History for Eagle, CO

Change the Weather History Date:

Wednesday, November 21, 2012

  Actual Average Record
Temperature  
Mean Temperature 39 °F -  
Max Temperature 57 °F 44 °F 63 °F (1989)
Min Temperature 21 °F 13 °F -22 °F (1956)
Degree Days  
Heating Degree Days 26    
Moisture  
Dew Point 23 °F    
Average Humidity 76    
Maximum Humidity 100    
Minimum Humidity 21    
Precipitation  
Precipitation 0.00 in - - ()
Sea Level Pressure  
Sea Level Pressure 30.17 in    
Wind  
Wind Speed 2 mph (ESE)    
Max Wind Speed 14 mph    
Max Gust Speed -    
Visibility 10 miles    
Events      
Averages and records for this station are not official NWS values.
T = Trace of Precipitation, MM = Missing Value Source: NWS Daily Summary

Daily Weather History Graph

Daily Weather History Graph

Search for Another Location

Airport:

Trip Planner

Search our weather history database for the weather conditions in past years. The results will help you decide how hot, cold, wet, or windy it might be!

Date:

Astronomy

Nov. 21, 2012 Rise Set
Actual Time 6:59 AM MST 4:47 PM MST
Civil Twilight 6:30 AM MST 5:16 PM MST
Nautical Twilight 5:57 AM MST 5:49 PM MST
Astronomical Twilight 5:24 AM MST 6:22 PM MST
Moon 1:04 PM MST (11/21) 12:22 AM MST (11/21)
Length of Visible Light 10h 46m
Length of Day
9h 48m
Waxing Gibbous, 62% of the Moon is Illuminated
Nov 21
Waxing Gibbous
Nov 28
Full
Dec 6
Last Quarter
Dec 13
New
Dec 19
First Quarter

Hourly Weather History & Observations

Time (MST) Temp. Windchill Dew Point Humidity Pressure Visibility Wind Dir Wind Speed Gust Speed Precip Events Conditions
12:15 AM 28.4 °F - 24.8 °F 86% 30.25 in 10.0 mi Calm Calm - N/A   Clear
12:35 AM 28.4 °F - 24.8 °F 86% 30.25 in 10.0 mi Calm Calm - N/A   Clear
12:55 AM 26.6 °F - 24.8 °F 93% 30.25 in 10.0 mi Calm Calm - N/A   Clear
1:15 AM 26.6 °F 22.6 °F 24.8 °F 93% 30.25 in 10.0 mi East 3.5 mph - N/A   Clear
1:35 AM 26.6 °F 22.6 °F 24.8 °F 93% 30.25 in 10.0 mi East 3.5 mph - N/A   Clear
1:55 AM 26.6 °F - 24.8 °F 93% 30.25 in 10.0 mi Calm Calm - N/A   Clear
2:15 AM 26.6 °F - 24.8 °F 93% 30.25 in 10.0 mi Calm Calm - N/A   Clear
2:35 AM 24.8 °F - 24.8 °F 100% 30.25 in 10.0 mi Calm Calm - N/A   Clear
2:55 AM 26.6 °F - 24.8 °F 93% 30.25 in 10.0 mi Calm Calm - N/A   Clear
3:15 AM 24.8 °F - 23.0 °F 93% 30.24 in 10.0 mi Calm Calm - N/A   Clear
3:35 AM 24.8 °F - 23.0 °F 93% 30.24 in 10.0 mi Calm Calm - N/A   Clear
3:55 AM 24.8 °F 20.5 °F 23.0 °F 93% 30.24 in 10.0 mi West 3.5 mph - N/A   Clear
4:15 AM 24.8 °F - 23.0 °F 93% 30.25 in 10.0 mi Calm Calm - N/A   Clear
4:35 AM 24.8 °F - 21.2 °F 86% 30.24 in 10.0 mi Calm Calm - N/A   Clear
4:55 AM 23.0 °F 13.9 °F 21.2 °F 93% 30.24 in 10.0 mi East 8.1 mph - N/A   Clear
5:15 AM 23.0 °F 15.8 °F 21.2 °F 93% 30.24 in 10.0 mi East 5.8 mph - N/A   Clear
5:35 AM 23.0 °F - 21.2 °F 93% 30.24 in 10.0 mi Calm Calm - N/A   Clear
5:55 AM 21.2 °F - 21.2 °F 100% 30.23 in 10.0 mi Calm Calm - N/A   Clear
6:15 AM 21.2 °F 16.4 °F 19.4 °F 93% 30.23 in 10.0 mi East 3.5 mph - N/A   Clear
6:50 AM 21.2 °F - 19.4 °F 93% 30.23 in 10.0 mi Calm Calm - N/A   Partly Cloudy
6:55 AM 21.2 °F - 19.4 °F 93% 30.23 in 10.0 mi Calm Calm - N/A   Clear
7:59 AM 24.8 °F - 21.2 °F 86% 30.23 in 10.0 mi Calm Calm - N/A   Partly Cloudy
9:50 AM 30.2 °F - 24.8 °F 80% 30.21 in 10.0 mi Calm Calm - N/A   Partly Cloudy
10:50 AM 35.6 °F - 24.8 °F 65% 30.17 in 10.0 mi Calm Calm - N/A   Partly Cloudy
11:50 AM 42.8 °F - 26.6 °F 53% 30.12 in 10.0 mi Calm Calm - N/A   Partly Cloudy
12:50 PM 48.2 °F - 26.6 °F 43% 30.08 in 10.0 mi Calm Calm - N/A   Partly Cloudy
1:50 PM 53.6 °F - 24.8 °F 33% 30.06 in 10.0 mi West 4.6 mph - N/A   Partly Cloudy
2:52 PM 57.2 °F - 17.6 °F 21% 30.04 in 10.0 mi SW 13.8 mph - N/A   Partly Cloudy
3:51 PM 55.4 °F - 19.4 °F 25% 30.05 in 10.0 mi WSW 13.8 mph - N/A   Scattered Clouds
4:50 PM 51.8 °F - 17.6 °F 26% 30.05 in 10.0 mi SSW 10.4 mph - N/A   Partly Cloudy
5:51 PM 46.4 °F - 19.4 °F 34% 30.07 in 10.0 mi Calm Calm - N/A   Clear
6:50 PM 37.4 °F 30.3 °F 24.8 °F 60% 30.08 in 10.0 mi ENE 10.4 mph - N/A   Clear
7:15 PM 35.6 °F 30.7 °F 24.8 °F 65% 30.08 in 10.0 mi East 5.8 mph - N/A   Clear
7:35 PM 35.6 °F 29.2 °F 23.0 °F 60% 30.08 in 10.0 mi East 8.1 mph - N/A   Clear
7:55 PM 35.6 °F 29.2 °F 21.2 °F 56% 30.08 in 10.0 mi East 8.1 mph - N/A   Clear
8:15 PM 33.8 °F 27.7 °F 23.0 °F 65% 30.08 in 10.0 mi East 6.9 mph - N/A   Clear
8:35 PM 33.8 °F 30.8 °F 23.0 °F 65% 30.08 in 10.0 mi ENE 3.5 mph - N/A   Clear
9:55 PM 30.2 °F 26.7 °F 24.8 °F 80% 30.09 in 10.0 mi SE 3.5 mph - N/A   Clear
10:15 PM 30.2 °F - 24.8 °F 80% 30.09 in 10.0 mi Calm Calm - N/A   Clear
10:35 PM 30.2 °F - 24.8 °F 80% 30.09 in 10.0 mi Calm Calm - N/A   Clear
10:55 PM 28.4 °F - 24.8 °F 86% 30.10 in 10.0 mi Calm Calm - N/A   Clear
11:15 PM 28.4 °F - 24.8 °F 86% 30.10 in 10.0 mi Calm Calm - N/A   Clear
11:55 PM 28.4 °F - 23.0 °F 80% 30.10 in 10.0 mi Calm Calm - N/A   Clear